Content
SEND FEEDBACK

Daily
Averages
Monthly
Summary
United States of America

PORTLAND, OHIO


Home > North America > United States > Ohio
Elevation: 590 feet     Latitude: 39 01N     Longitude: 081 46W

WEATHER
 
SELECT A DAY
Number of Records: 213,948;   Date Range: 10/27/05 - 9/19/14
 
SHARE

PRINT THIS DATA

[ ← Previous Day ]
WEATHER ALMANAC - FEBRUARY 13, 2013
[ Next Day → ]
[ °C ]   °F
Weather ElementAverageHighLow
Temperature34.6 °F42.8 °F (11:55 am)30.2 °F (12:35 am)
Dewpoint30.5 °F33.8 °F (1:55 pm)26.6 °F (12:35 am)
Humidity86.2 %100 % (2:55 pm)57 % (11:55 am)
Barometer29.82 in29.94 in (10:55 pm)29.71 in (12:35 pm)
Wind Speed1.1 mph4.6 mph (12:55 pm)
Weather ElementAverage
Visibility7.8 mi
Wind DirectionENE (70.3 °)

Weather ElementTotal
Precipitation---
Heating Degree Days28.5 (Base 65)
Averaged from 71 records on February 13, 2013
WEATHER CONDITIONS BREAKOUT
WIND DIRECTION BREAKOUT
WEATHER BY HOUR - FEBRUARY 13, 2013
[ °C ]   °F
Local TimeTemperatureDewpointHumidityBarometerVisibilityWind DirectionWind SpeedGust SpeedPrecipitationEventsConditions
12:35 AM30.2 °F26.6 °F86 %29.93 in10.0 miCalmClear
12:55 AM30.2 °F26.6 °F86 %29.92 in10.0 miCalmClear
1:15 AM30.2 °F26.6 °F86 %29.91 in10.0 miCalmClear
1:35 AM30.2 °F26.6 °F86 %29.90 in10.0 miCalmClear
1:55 AM30.2 °F26.6 °F86 %29.89 in10.0 miCalmClear
2:15 AM30.2 °F26.6 °F86 %29.89 in10.0 miCalmClear
2:35 AM30.2 °F26.6 °F86 %29.89 in10.0 miCalmClear
2:55 AM32.0 °F28.4 °F87 %29.89 in10.0 miCalmClear
3:15 AM32.0 °F26.6 °F80 %29.87 in10.0 miCalmClear
3:35 AM32.0 °F28.4 °F87 %29.87 in10.0 miCalmClear
3:55 AM32.0 °F28.4 °F87 %29.86 in10.0 miCalmClear
4:15 AM32.0 °F28.4 °F87 %29.85 in10.0 miCalmClear
4:35 AM32.0 °F28.4 °F87 %29.85 in10.0 miCalmClear
4:55 AM32.0 °F28.4 °F87 %29.85 in10.0 miCalmClear
5:15 AM32.0 °F28.4 °F87 %29.84 in10.0 miCalmClear
5:35 AM32.0 °F30.2 °F93 %29.83 in10.0 miCalmClear
5:55 AM32.0 °F30.2 °F93 %29.82 in10.0 miCalmClear
6:15 AM33.8 °F30.2 °F87 %29.81 in10.0 miCalmClear
6:35 AM33.8 °F30.2 °F87 %29.79 in10.0 miCalmClear
6:55 AM33.8 °F30.2 °F87 %29.79 in10.0 miCalmClear
7:15 AM33.8 °F30.2 °F87 %29.78 in10.0 miCalmClear
7:35 AM32.0 °F30.2 °F93 %29.77 in10.0 miCalmClear
7:55 AM33.8 °F30.2 °F87 %29.76 in10.0 miCalmClear
8:15 AM33.8 °F30.2 °F87 %29.77 in10.0 miCalmClear
8:35 AM35.6 °F30.2 °F81 %29.77 in10.0 miCalmClear
8:55 AM35.6 °F32.0 °F87 %29.77 in10.0 miCalmClear
9:15 AM37.4 °F30.2 °F75 %29.75 in10.0 miCalmClear
9:35 AM37.4 °F28.4 °F70 %29.78 in10.0 miCalmClear
9:55 AM37.4 °F28.4 °F70 %29.77 in10.0 miCalmClear
10:15 AM41.0 °F28.4 °F61 %29.78 in10.0 miCalmClear
10:35 AM41.0 °F28.4 °F61 %29.75 in10.0 miCalmClear
10:55 AM41.0 °F30.2 °F65 %29.76 in10.0 miCalmClear
11:15 AM41.0 °F28.4 °F61 %29.76 in10.0 miCalmClear
11:35 AM41.0 °F28.4 °F61 %29.75 in10.0 miNorth (10°)3.5 mphClear
11:55 AM42.8 °F28.4 °F57 %29.75 in10.0 miCalmClear
12:15 PM42.8 °F28.4 °F57 %29.74 in10.0 miNW (320°)3.5 mphClear
12:35 PM42.8 °F28.4 °F57 %29.71 in10.0 miNorth (350°)3.5 mphClear
12:55 PM42.8 °F30.2 °F61 %29.72 in10.0 miNNE (20°)4.6 mphClear
1:15 PM42.8 °F30.2 °F61 %29.72 in10.0 miNNW (340°)4.6 mphRainLight Rain
1:35 PM37.4 °F32.0 °F81 %29.73 in7.0 miNW (310°)3.5 mphRainLight Rain
1:55 PM35.6 °F33.8 °F93 %29.73 in2.0 miNNW (330°)4.6 mphOvercast
2:15 PM35.6 °F33.8 °F93 %29.73 in1.2 miCalmRainLight Rain
2:35 PM35.6 °F33.8 °F93 %29.74 in1.8 miCalmSnowLight Snow
2:55 PM33.8 °F33.8 °F100 %29.75 in1.0 miWNW (300°)3.5 mphSnowLight Snow
3:15 PM33.8 °F32.0 °F93 %29.76 in0.5 miWNW (290°)4.6 mphSnowLight Snow
3:35 PM33.8 °F33.8 °F100 %29.77 in1.5 miWNW (300°)3.5 mphSnowLight Snow
3:55 PM33.8 °F33.8 °F100 %29.77 in1.0 miCalmSnowLight Snow
4:15 PM33.8 °F33.8 °F100 %29.78 in1.2 miCalmSnowLight Snow
4:35 PM33.8 °F32.0 °F93 %29.79 in0.8 miCalmSnowLight Snow
4:55 PM33.8 °F33.8 °F100 %29.79 in0.8 miCalmSnowLight Snow
5:15 PM33.8 °F33.8 °F100 %29.80 in1.5 miCalmSnowLight Snow
5:35 PM33.8 °F33.8 °F100 %29.81 in1.8 miCalmSnowLight Snow
5:55 PM33.8 °F33.8 °F100 %29.82 in2.0 miCalmSnowLight Snow
6:15 PM33.8 °F33.8 °F100 %29.83 in2.0 miWest (280°)3.5 mphSnowLight Snow
6:35 PM33.8 °F33.8 °F100 %29.84 in4.0 miWest (260°)4.6 mphSnowLight Snow
6:55 PM33.8 °F32.0 °F93 %29.84 in4.0 miWSW (240°)4.6 mphSnowLight Snow
7:15 PM33.8 °F32.0 °F93 %29.86 in5.0 miWSW (250°)4.6 mphOvercast
7:35 PM33.8 °F32.0 °F93 %29.87 in5.0 miCalmOvercast
7:55 PM33.8 °F33.8 °F100 %29.89 in5.0 miCalmOvercast
8:15 PM33.8 °F32.0 °F93 %29.89 in7.0 miCalmOvercast
8:35 PM33.8 °F32.0 °F93 %29.90 in10.0 miWest (270°)4.6 mphOvercast
8:55 PM33.8 °F32.0 °F93 %29.90 in10.0 miWest (280°)3.5 mphOvercast
9:15 PM33.8 °F32.0 °F93 %29.91 in10.0 miCalmOvercast
9:35 PM33.8 °F32.0 °F93 %29.91 in10.0 miWNW (290°)3.5 mphOvercast
9:55 PM33.8 °F32.0 °F93 %29.92 in10.0 miCalmOvercast
10:15 PM33.8 °F32.0 °F93 %29.93 in10.0 miWest (280°)4.6 mphOvercast
10:35 PM33.8 °F32.0 °F93 %29.93 in10.0 miWest (270°)3.5 mphOvercast
10:55 PM33.8 °F32.0 °F93 %29.94 in10.0 miCalmOvercast
11:15 PM33.8 °F32.0 °F93 %29.94 in10.0 miCalmOvercast
11:35 PM32.0 °F30.2 °F93 %29.94 in10.0 miCalmScattered Clouds
11:55 PM32.0 °F30.2 °F93 %29.94 in5.0 miCalmScattered Clouds
Hourly data recorded from K3I2, located miles away from Portland, Ohio







STORIES FROM OUR PARTNERS